Showing default

FENGYUN 4B, 48808

Orbit data source: Space-Track

FENGYUN 4B, 48808 is a payload satellite owned by CNMSC (CN) in GEO that was launched on Wed, 02 Jun 2021 UTC via a CHANG ZHENG 3B launch vehicle from the Xichang Space Center, China (XSC). Payload-class satellites include a variety of spacecraft equipped with specific instruments for various scientific and technological missions. These include communications satellites like Starlink; space stations such as the ISS; scientific satellites like the Hubble; Earth observation satellites from companies like Planet Labs, Umbra, and HawkEye 360; GPS; miniature CubeSats for education and research; and military/defense satellites.

Not visible in the next 10 days
Identifier
48808, 2021-047A
Orbit
GEO
Country
Flag of CNCN / PRC
Related business
Manufacturer
SISE
Mission
Operational Civil Weather
Bus & Motor
FY-4, LAE?
Mass
5,380 kg wet, ~3,000 kg dry
Launch date (UTC)
2021-06-02 (5 years ago)
Launch vehicle
CHANG ZHENG 3B
Launch site
Xichang Space Center, China (XSC)
Object type
Payload
Rocket body
Debris
Shape & HBR
Box + 1 Pan, 5.0 m
Radar Cross Section
24.437 m², Large (>1 m²)

Expand to show TLE details & history
Last TLE update: 21 hours ago

TLE from 21 hours ago
0 FENGYUN 4B
1 48808U 21047A   26172.55343015 -.00000332  00000-0  00000+0 0  9994
2 48808   0.1647  78.1229 0005927 276.9641 218.5870  1.00275001 18618
Epoch: 2026-06-21T13:16Z
TLE epoch observation values (Epoch: 2026-06-21T13:16:56.364Z)
Latitude
0.10399°
Longitude
104.65593°
Altitude
35,804.62 km
Speed
3.073 km/s
True Right ascension
14h 14m 34s
True Declination
0° 06' 14"
Sunlit
Object was in daylight at epoch
Visualization orbit readout
Latitude
Unknown
Longitude
Unknown
Altitude
Unknown
Speed
Unknown
Apparent Right ascension
Unknown
Apparent Declination
Unknown
Sunlit
N/A
Visualization observer readout
Local Sidereal Time
21:27:22
Azimuth
Unknown
Elevation
Unknown
Doppler factor
Unknown
Orbital elements
Apogee altitude
35,811.755 km
Perigee altitude
35,761.773 km
Semi-major axis
42,164.901 km
Eccentricity
0.00059
Inclination
0.1647°
RAAN
78.1229°
Arg. of periapsis
276.9641°
True anomaly
218.54466°
Mean anomaly
218.587°
Eccentric anomaly
218.56583°
Mean motion
0.25068 °/min
Orbital period
1,436.1 mins
BSTAR
0
Loading maneuver chart data...
Computing Atmospheric mass density...
Loading historical data...
Loading historical data...
Loading historical data...
Loading historical data...
Loading historical data...
Loading historical data...
Loading historical data...
Other satellites on launch #47 in the year 2021 (2021-06-02 UTC)

Documentation

Showing up to 5 results
|